• In Hungary
  • List of Countries
  • For 7 days
  • Water Temperature
  • Satellite Maps
  • Weather Map
  • News
  • Weather Widgets
  • user-avatar
    Login

    Hourly Weather Taba

    Today, 18 September, Tuesday

    Time Temperature Precipitation Wind Pressure Humidity
    00:00 +24°C° 0 mm 3 mps 690 mmHg 69%
    01:00 +24°C° 0 mm 2 mps 690 mmHg 73%
    02:00 +23°C° 0 mm 2 mps 689 mmHg 80%
    03:00 +23°C° 0 mm 2 mps 689 mmHg 81%
    04:00 +21°C° 0 mm 2 mps 689 mmHg 82%
    05:00 +21°C° 0 mm 2 mps 689 mmHg 84%
    06:00 +23°C° 0 mm 2 mps 690 mmHg 78%
    07:00 +24°C° 0 mm 3 mps 690 mmHg 73%
    08:00 +25°C° 0 mm 3 mps 690 mmHg 67%
    09:00 +26°C° 0 mm 3 mps 691 mmHg 59%
    10:00 +28°C° 0 mm 3 mps 691 mmHg 51%
    11:00 +29°C° 0 mm 3 mps 691 mmHg 44%
    12:00 +30°C° 0 mm 3 mps 691 mmHg 39%
    13:00 +31°C° 0 mm 3 mps 691 mmHg 35%
    14:00 +33°C° 0 mm 3 mps 691 mmHg 31%
    15:00 +33°C° 0 mm 4 mps 691 mmHg 31%
    16:00 +33°C° 0 mm 4 mps 691 mmHg 32%
    17:00 +32°C° 0 mm 4 mps 691 mmHg 32%
    18:00 +30°C° 0 mm 4 mps 691 mmHg 35%
    19:00 +29°C° 0 mm 4 mps 691 mmHg 39%
    20:00 +28°C° 0 mm 3 mps 691 mmHg 42%
    21:00 +27°C° 0 mm 3 mps 691 mmHg 46%
    22:00 +26°C° 0 mm 3 mps 691 mmHg 51%
    23:00 +25°C° 0 mm 2 mps 691 mmHg 55%

    Tomorrow, 19 September, Wednesday

    Time Temperature Precipitation Wind Pressure Humidity
    00:00 +25°C° 0 mm 2 mps 691 mmHg 58%
    01:00 +24°C° 0 mm 2 mps 691 mmHg 61%
    02:00 +24°C° 0 mm 2 mps 691 mmHg 64%
    03:00 +23°C° 0 mm 2 mps 691 mmHg 65%
    04:00 +23°C° 0 mm 2 mps 691 mmHg 66%
    05:00 +23°C° 0 mm 2 mps 691 mmHg 67%
    06:00 +24°C° 0 mm 2 mps 691 mmHg 61%
    07:00 +25°C° 0 mm 2 mps 692 mmHg 54%
    08:00 +26°C° 0 mm 3 mps 692 mmHg 48%
    09:00 +27°C° 0 mm 3 mps 692 mmHg 41%
    10:00 +29°C° 0 mm 3 mps 692 mmHg 35%
    11:00 +30°C° 0 mm 4 mps 693 mmHg 28%
    12:00 +32°C° 0 mm 4 mps 692 mmHg 26%
    13:00 +33°C° 0 mm 4 mps 692 mmHg 24%
    14:00 +34°C° 0 mm 4 mps 692 mmHg 22%
    15:00 +33°C° 0 mm 4 mps 692 mmHg 23%
    16:00 +33°C° 0 mm 4 mps 691 mmHg 23%
    17:00 +32°C° 0 mm 4 mps 691 mmHg 23%
    18:00 +30°C° 0 mm 4 mps 691 mmHg 26%
    19:00 +29°C° 0 mm 3 mps 692 mmHg 29%
    20:00 +28°C° 0 mm 3 mps 692 mmHg 32%
    21:00 +27°C° 0 mm 3 mps 692 mmHg 37%
    22:00 +26°C° 0 mm 3 mps 692 mmHg 42%
    23:00 +26°C° 0 mm 2 mps 692 mmHg 47%

    Day after tomorrow, 20 September, Thursday

    Time Temperature Precipitation Wind Pressure Humidity
    00:00 +25°C° 0 mm 2 mps 692 mmHg 51%
    01:00 +24°C° 0 mm 2 mps 691 mmHg 56%
    02:00 +24°C° 0 mm 2 mps 691 mmHg 60%
    03:00 +23°C° 0 mm 2 mps 691 mmHg 62%
    04:00 +23°C° 0 mm 2 mps 691 mmHg 65%
    05:00 +21°C° 0 mm 2 mps 691 mmHg 67%
    06:00 +24°C° 0 mm 2 mps 691 mmHg 61%
    07:00 +25°C° 0 mm 2 mps 692 mmHg 54%
    08:00 +26°C° 0 mm 3 mps 692 mmHg 47%
    09:00 +27°C° 0 mm 3 mps 693 mmHg 41%
    10:00 +29°C° 0 mm 3 mps 693 mmHg 34%
    11:00 +32°C° 0 mm 4 mps 693 mmHg 27%
    12:00 +33°C° 0 mm 4 mps 692 mmHg 25%
    13:00 +34°C° 0 mm 4 mps 692 mmHg 23%
    14:00 +35°C° 0 mm 4 mps 692 mmHg 21%
    15:00 +34°C° 0 mm 4 mps 692 mmHg 22%
    16:00 +33°C° 0 mm 4 mps 691 mmHg 22%
    17:00 +33°C° 0 mm 5 mps 691 mmHg 23%
    18:00 +32°C° 0 mm 4 mps 691 mmHg 27%
    19:00 +30°C° 0 mm 4 mps 692 mmHg 30%
    20:00 +28°C° 0 mm 3 mps 692 mmHg 34%
    21:00 +27°C° 0 mm 3 mps 692 mmHg 38%
    22:00 +27°C° 0 mm 3 mps 692 mmHg 42%
    23:00 +26°C° 0 mm 2 mps 691 mmHg 46%

    21 September, Friday

    Time Temperature Precipitation Wind Pressure Humidity
    00:00 +25°C° 0 mm 2 mps 691 mmHg 49%
    01:00 +25°C° 0 mm 2 mps 691 mmHg 52%
    02:00 +24°C° 0 mm 2 mps 691 mmHg 55%
    03:00 +24°C° 0 mm 2 mps 691 mmHg 57%
    04:00 +23°C° 0 mm 2 mps 691 mmHg 58%
    05:00 +23°C° 0 mm 2 mps 691 mmHg 60%
    06:00 +24°C° 0 mm 3 mps 691 mmHg 54%
    07:00 +25°C° 0 mm 3 mps 692 mmHg 49%
    08:00 +26°C° 0 mm 3 mps 692 mmHg 43%
    09:00 +28°C° 0 mm 3 mps 692 mmHg 38%
    10:00 +29°C° 0 mm 3 mps 692 mmHg 33%
    11:00 +32°C° 0 mm 4 mps 693 mmHg 28%
    12:00 +33°C° 0 mm 4 mps 692 mmHg 26%
    13:00 +34°C° 0 mm 4 mps 692 mmHg 24%
    14:00 +35°C° 0 mm 4 mps 692 mmHg 22%
    15:00 +34°C° 0 mm 4 mps 692 mmHg 23%
    16:00 +34°C° 0 mm 4 mps 691 mmHg 24%
    17:00 +33°C° 0 mm 4 mps 691 mmHg 25%
    18:00 +32°C° 0 mm 4 mps 692 mmHg 29%
    19:00 +30°C° 0 mm 4 mps 692 mmHg 33%
    20:00 +28°C° 0 mm 3 mps 692 mmHg 37%
    21:00 +27°C° 0 mm 3 mps 692 mmHg 42%
    22:00 +26°C° 0 mm 3 mps 692 mmHg 46%
    23:00 +26°C° 0 mm 2 mps 692 mmHg 50%

    22 September, Saturday

    Time Temperature Precipitation Wind Pressure Humidity
    00:00 +25°C° 0 mm 2 mps 692 mmHg 53%
    01:00 +24°C° 0 mm 2 mps 691 mmHg 55%
    02:00 +24°C° 0 mm 2 mps 691 mmHg 57%
    03:00 +23°C° 0 mm 2 mps 691 mmHg 58%
    04:00 +23°C° 0 mm 2 mps 691 mmHg 59%
    05:00 +23°C° 0 mm 2 mps 691 mmHg 60%
    06:00 +24°C° 0 mm 2 mps 692 mmHg 55%
    07:00 +25°C° 0 mm 3 mps 692 mmHg 50%
    08:00 +26°C° 0 mm 3 mps 692 mmHg 46%
    09:00 +28°C° 0 mm 3 mps 693 mmHg 40%
    10:00 +29°C° 0 mm 3 mps 693 mmHg 35%
    11:00 +31°C° 0 mm 3 mps 693 mmHg 30%
    12:00 +33°C° 0 mm 3 mps 692 mmHg 28%
    13:00 +34°C° 0 mm 3 mps 692 mmHg 26%
    14:00 +35°C° 0 mm 3 mps 692 mmHg 24%
    15:00 +35°C° 0 mm 4 mps 692 mmHg 25%
    16:00 +34°C° 0 mm 4 mps 692 mmHg 26%
    17:00 +34°C° 0 mm 4 mps 692 mmHg 27%
    18:00 +32°C° 0 mm 4 mps 692 mmHg 33%
    19:00 +29°C° 0 mm 4 mps 692 mmHg 38%
    20:00 +28°C° 0 mm 4 mps 692 mmHg 43%
    21:00 +27°C° 0 mm 3 mps 692 mmHg 47%
    22:00 +26°C° 0 mm 3 mps 692 mmHg 52%
    23:00 +25°C° 0 mm 3 mps 692 mmHg 57%

    23 September, Sunday

    Time Temperature Precipitation Wind Pressure Humidity
    00:00 +25°C° 0 mm 3 mps 692 mmHg 59%
    01:00 +24°C° 0 mm 3 mps 692 mmHg 62%
    02:00 +22°C° 0 mm 3 mps 691 mmHg 65%
    03:00 +22°C° 0 mm 3 mps 691 mmHg 69%
    04:00 +21°C° 0 mm 3 mps 691 mmHg 72%
    05:00 +21°C° 0 mm 3 mps 691 mmHg 75%
    06:00 +22°C° 0 mm 3 mps 692 mmHg 71%
    07:00 +24°C° 0 mm 3 mps 692 mmHg 66%
    08:00 +24°C° 0 mm 3 mps 692 mmHg 61%
    09:00 +26°C° 0 mm 3 mps 692 mmHg 54%
    10:00 +28°C° 0 mm 3 mps 692 mmHg 46%
    11:00 +30°C° 0 mm 3 mps 692 mmHg 39%
    12:00 +31°C° 0 mm 3 mps 692 mmHg 36%
    13:00 +33°C° 0 mm 3 mps 692 mmHg 33%
    14:00 +34°C° 0 mm 4 mps 691 mmHg 30%
    15:00 +33°C° 0 mm 4 mps 691 mmHg 30%
    16:00 +33°C° 0 mm 4 mps 691 mmHg 31%
    17:00 +32°C° 0 mm 5 mps 691 mmHg 32%
    18:00 +30°C° 0 mm 4 mps 692 mmHg 36%
    19:00 +28°C° 0 mm 4 mps 692 mmHg 41%
    20:00 +27°C° 0 mm 4 mps 692 mmHg 46%
    21:00 +26°C° 0 mm 4 mps 692 mmHg 51%
    22:00 +25°C° 0 mm 3 mps 692 mmHg 56%
    23:00 +24°C° 0 mm 3 mps 692 mmHg 61%
    Show more